Home   Weather   Lanzhou   Past weeks

Flag for China Past Weather in Lanzhou, Gansu, China — Yesterday and Last 2 Weeks

30 °F

Light snow. Ice fog.

Feels Like: 30 °F
Forecast: 20 / 45 °F
Wind: 1 mph from Southeast

Location: Lanzhou / Zhongchuan

Current Time: Oct 28, 2016 at 11:55:01 PM

Latest Report: Oct 28, 2016 at 11:00 PM

Visibility: 3 mi

Pressure: 30.48 "Hg (25.11 "Hg at 1543m altitude)

Humidity: 93%

Dew Point: 28 °F

Location of LanzhouLocation

Past Weather in Lanzhou — Graph


Lanzhou Temperature Yesterday

Maximum temperature yesterday: 45 °F (at 12:00 AM)
Minimum temperature yesterday: 28 °F (at 8:00 AM)
Average temperature yesterday: 33 °F

High & Low Weather Summary for the Past Weeks

High68 °F (Oct 18, 3:00 PM)100% (Oct 15, 12:00 AM)30.57 "Hg (Oct 15, 12:00 AM)
Low28 °F (Oct 27, 8:00 AM)21% (Oct 18, 4:00 PM)29.89 "Hg (Oct 20, 3:00 AM)
Average44 °F71%30.15 "Hg
* Reported Oct 13 10:00 PM — Oct 28 10:00 PM, Lanzhou, Weather by CustomWeather, © 2016

Note: Actual official high and low records may vary slightly from our data, if they occured in-between our weather recording intervals... More about our weather records


Lanzhou Weather History for the Previous 24 Hours

Scroll right to see more
Time TempWeatherWind HumidityBarometerVisibility
10:00 PM
Fri, Oct 28
30 °FLight snow. Ice fog.1 mph93%30.48 "Hg3 mi
9:00 PM30 °FLight snow. Mostly cloudy.3 mph93%30.45 "Hg3 mi
8:00 PM30 °FLight snow. Mostly cloudy.1 mph93%30.45 "Hg4 mi
7:00 PM30 °FLight snow. Ice fog.1 mph93%30.42 "Hg3 mi
6:00 PM30 °FLight snow. Ice fog.3 mph93%30.39 "Hg3 mi
5:00 PM32 °FLight snow. More clouds than sun.3 mph87%30.39 "Hg4 mi
4:00 PM30 °FLight snow. More clouds than sun.3 mph93%30.39 "Hg4 mi
3:00 PM32 °FLight snow. More clouds than sun.3 mph87%30.39 "Hg4 mi
2:00 PM30 °FLight snow. Overcast.3 mph93%30.42 "Hg2 mi
1:00 PM30 °FLight snow. Overcast.3 mph86%30.45 "Hg1 mi
12:00 PM30 °FOvercast.3 mph75%30.48 "HgN/A
11:00 AM30 °FOvercast.3 mph75%30.48 "HgN/A
10:00 AM30 °FPassing clouds.1 mph80%30.51 "HgN/A
9:00 AM30 °FOvercast.1 mph80%30.51 "HgN/A
8:00 AM28 °FOvercast.3 mph86%30.48 "HgN/A
7:00 AM28 °FPassing clouds.1 mph86%30.48 "HgN/A
6:00 AM28 °FPassing clouds.1 mph86%30.48 "HgN/A
5:00 AM28 °FPassing clouds.1 mph80%30.51 "HgN/A
4:00 AM28 °FPassing clouds.1 mph86%30.51 "HgN/A
3:00 AM28 °FPassing clouds.6 mph86%30.54 "HgN/A
2:00 AM28 °FPassing clouds.6 mph86%30.54 "HgN/A
1:00 AM28 °FPassing clouds.1 mph86%30.54 "HgN/A
12:00 AM28 °FMostly cloudy.3 mph86%30.57 "HgN/A
11:00 PM
Thu, Oct 27
30 °FMostly cloudy.6 mph80%30.57 "HgN/A
Weather by CustomWeather, © 2016

See weather overviewHow to use our weather pages